RH
100 99 99 99 93 86 89 100 95 82 84 74 55 65 61 55 52 47 53 60 52 57 86 90 96 94 89 88 94 93 91 94 87 81 80 81 70 76 89 87 87 88 84
89 99 95 97 100 93 84 85 92 90 80 62 57 57 56 53 48 48 50 61 54 55 68 91 95 91 86 92 96 97 96 98 85 85 75 70 65 72 88 87 89 89 89
88 89 96 96 99 99 94 93 83 74 70 60 60 49 50 49 47 51 59 62 58 55 61 86 93 92 85 91 94 98 94 77 74 78 75 74 66 67 80 87 86 85 87
91 86 86 97 99 97 100 98 89 83 71 66 53 49 49 49 50 50 60 66 60 54 57 71 82 88 88 94 94 99 98 78 83 93 90 78 70 78 86 86 87 85 86
84 85 90 99 98 99 99 98 100 97 88 67 52 53 54 54 58 57 53 64 63 61 58 80 84 85 87 92 91 92 94 94 81 88 88 76 83 88 86 83 88 84 88
77 83 92 98 95 98 100 100 98 98 90 84 57 58 58 59 58 56 62 58 60 63 75 90 89 87 88 88 90 93 97 98 97 84 92 91 91 84 82 87 83 87 91
75 80 88 88 99 99 100 100 100 100 100 98 74 70 62 60 63 58 64 63 71 67 74 93 94 87 84 87 87 90 94 96 96 98 96 97 92 88 91 88 89 92 92
78 82 84 92 96 98 100 100 100 90 100 100 94 88 88 74 63 58 58 67 71 75 69 74 100 87 97 92 89 88 88 95 98 98 99 93 90 88 88 88 88 87 88
82 80 83 88 95 97 99 99 100 100 98 94 96 94 97 90 73 64 60 57 69 78 77 70 76 87 92 79 73 68 81 82 96 98 98 93 93 90 90 90 88 88 85
84 85 85 86 90 98 96 99 100 99 100 93 99 97 77 66 76 89 69 63 59 70 79 82 76 86 80 70 70 70 66 62 76 95 98 93 93 92 91 92 89 87 87
84 87 88 87 88 93 98 98 99 94 100 100 94 96 87 72 62 81 88 76 66 62 73 76 72 69 76 75 74 70 73 70 74 88 97 94 91 93 93 93 90 88 88
80 86 88 90 90 90 92 97 98 98 97 99 100 93 85 80 77 70 85 73 71 67 67 72 72 71 70 68 65 70 79 73 66 79 98 94 93 91 92 93 92 88 86
80 86 88 90 91 89 89 92 97 99 99 99 98 100 95 83 77 72 69 75 80 70 69 73 70 69 65 66 64 65 76 75 65 74 96 97 94 92 90 91 92 90 88
84 85 89 88 89 89 89 88 96 98 99 98 99 98 99 99 94 83 88 83 93 87 76 73 71 67 63 62 64 64 64 66 70 70 84 90 91 91 92 90 92 94 87
82 82 90 87 91 89 89 88 89 98 98 100 92 100 100 100 100 87 94 80 83 93 88 79 74 71 68 65 66 68 65 61 68 70 68 70 82 92 87 88 89 88 89
86 86 87 88 88 89 88 89 88 93 100 100 95 95 99 100 97 90 85 86 82 79 87 77 77 76 75 71 69 71 68 62 62 76 76 73 73 75 76 78 81 84 85
86 85 88 91 91 88 87 87 88 85 93 100 99 93 97 100 95 93 86 78 77 74 76 87 79 76 80 80 78 78 77 70 62 64 67 71 76 76 78 81 85 81 83
85 82 86 91 93 91 89 89 86 88 87 98 100 99 97 90 100 98 99 84 80 75 71 90 92 92 84 84 82 82 83 80 71 64 64 67 76 73 78 79 81 83 84
90 92 85 89 94 94 91 86 85 88 88 89 98 100 99 96 96 97 98 92 84 78 74 79 98 99 99 88 97 93 87 83 75 71 71 70 73 71 74 77 80 80 75
87 93 95 85 92 93 93 88 84 88 90 89 98 99 100 98 98 99 97 96 99 91 85 78 92 99 99 100 100 100 100 98 88 84 78 74 74 79 78 78 73 71 74
85 88 93 92 89 94 92 87 86 86 89 91 94 99 99 98 90 91 100 94 95 95 92 84 98 97 99 100 99 99 100 100 100 100 92 90 86 81 77 76 73 72 70
86 87 92 96 96 94 89 86 88 95 92 94 97 98 99 100 95 86 84 98 87 93 93 90 90 90 97 99 100 99 99 98 98 98 100 93 86 77 74 73 70 68 67
86 92 96 94 96 95 94 87 88 97 100 100 99 97 96 99 99 94 84 92 91 83 80 85 84 91 89 94 97 100 100 96 90 84 95 89 83 77 71 69 68 71 74
91 94 94 94 97 96 94 88 87 95 100 100 100 99 99 98 99 98 91 98 99 93 78 81 82 80 84 86 89 86 91 98 97 88 86 93 88 83 77 78 80 76 71
94 92 93 97 99 98 96 95 96 100 100 100 100 100 100 99 97 95 98 95 100 100 92 83 82 81 88 88 85 88 100 100 100 96 93 83 92 88 87 81 79 76 74
92 96 96 96 98 97 97 99 100 100 100 100 100 100 100 100 98 95 97 92 97 95 96 97 89 88 88 86 83 84 98 97 98 100 96 83 90 86 89 87 84 80 80
Wind_Speed
25 25 20 19 33 28 28 30 28 31 29 25 25 25 18 22 19 17 15 14 14 14 17 23 21 20 20 21 20 20 20 21 19 17 16 14 10 9 13 12 10 10 10
29 26 26 26 21 26 28 31 29 30 30 29 26 26 25 23 20 16 18 17 16 15 16 24 22 22 23 23 21 23 22 19 17 16 15 10 6 9 13 11 11 10 9
32 30 28 25 24 25 30 23 29 28 27 29 26 26 26 24 23 19 15 16 15 14 17 22 25 25 26 24 23 23 23 18 18 17 13 11 8 8 12 13 11 10 9
29 32 31 28 29 21 24 30 28 30 27 33 29 28 25 26 26 19 17 17 14 13 14 23 28 27 30 25 24 23 23 19 18 18 15 12 8 10 12 14 12 10 10
28 32 32 29 28 21 20 31 33 34 36 29 31 29 25 21 22 20 23 19 16 15 12 27 31 30 31 27 25 24 21 19 18 16 15 13 12 12 12 13 12 11 10
30 30 30 31 30 25 15 34 40 42 41 29 28 30 30 26 24 24 26 20 17 14 12 29 34 32 32 28 27 26 24 21 19 16 18 16 15 13 15 13 13 12 11
29 29 28 33 28 29 25 18 33 29 23 29 27 18 28 25 27 25 23 20 18 16 16 26 37 36 32 28 26 25 24 22 19 18 19 17 14 16 16 15 14 13 12
29 26 28 28 27 29 28 17 10 30 16 23 12 12 4 9 23 25 19 20 20 20 18 17 34 37 32 29 26 23 22 23 21 20 20 19 16 19 18 17 15 13 12
27 28 26 26 26 25 28 27 19 10 23 27 22 8 3 4 9 19 21 24 23 24 21 21 22 27 30 30 28 24 25 22 24 22 22 20 19 20 19 18 17 16 14
26 26 26 25 26 25 26 25 25 18 18 28 25 30 20 13 7 3 15 21 25 27 27 26 26 26 26 26 26 26 25 26 26 24 25 22 21 21 19 19 18 17 16
26 26 24 26 27 26 26 26 32 25 26 19 32 29 21 16 21 4 5 11 21 28 31 31 28 28 29 27 27 25 24 25 30 29 27 25 23 22 20 19 18 18 17
27 25 24 26 26 25 27 28 27 26 27 29 24 27 31 16 11 6 3 14 16 26 32 33 31 31 32 30 28 26 24 23 27 29 28 27 25 23 22 21 20 19 18
26 27 28 27 26 28 27 27 30 27 25 28 27 22 31 29 22 14 14 11 6 15 14 31 35 34 32 31 30 27 26 24 25 27 29 26 27 27 25 23 23 22 20
28 28 27 27 29 27 27 26 26 26 23 25 26 26 26 28 30 27 5 16 4 2 11 12 34 35 35 32 32 29 25 28 27 27 28 25 24 26 28 26 26 26 23
29 28 28 28 28 26 26 25 25 27 25 27 27 30 23 27 30 35 30 26 13 5 9 16 13 31 34 32 32 33 29 27 29 30 29 27 26 25 23 25 27 25 25
28 29 29 27 27 27 26 25 24 24 24 24 23 27 29 17 29 34 33 28 29 20 8 22 31 29 35 36 34 34 34 28 30 32 31 30 29 27 25 24 23 23 25
27 28 28 28 27 27 26 25 23 25 26 24 21 22 28 27 30 33 36 33 30 27 10 16 31 27 36 36 35 34 33 32 31 32 33 31 30 27 26 24 22 21 21
28 27 27 27 27 27 28 24 23 22 25 26 22 18 26 30 26 27 28 39 34 32 23 16 26 31 28 39 40 38 36 34 33 33 33 32 30 28 27 27 27 25 22
29 28 26 26 27 27 28 27 24 23 23 25 29 27 24 27 32 30 30 33 32 32 31 20 14 24 24 30 34 37 38 36 35 34 34 33 29 28 27 27 27 27 27
29 28 27 26 27 28 28 28 27 25 23 23 22 24 24 26 26 32 29 30 28 28 26 25 21 20 23 26 27 26 25 35 39 37 35 36 33 30 28 27 26 28 28
27 28 28 27 26 26 27 27 27 27 26 25 25 24 27 36 37 41 32 32 31 29 26 25 17 15 19 19 27 26 23 20 26 33 35 35 33 31 30 29 30 30 29
28 28 28 27 28 27 27 28 29 29 29 28 26 26 25 29 40 41 47 40 40 36 31 24 18 22 23 26 27 25 23 14 7 28 31 31 29 29 30 28 26 23 22
28 26 27 29 30 30 27 28 28 29 29 29 26 27 29 27 28 37 36 41 47 45 43 39 33 28 26 30 33 28 26 24 20 21 31 25 26 26 23 20 18 19 18
25 25 26 27 28 32 28 29 28 29 28 30 30 29 32 32 32 29 35 35 40 45 48 44 40 31 31 33 37 39 36 28 16 19 25 12 23 25 22 20 18 17 15
23 24 25 26 28 33 29 28 27 27 27 28 29 31 32 34 35 33 36 35 29 33 43 48 41 36 34 35 35 30 24 24 7 14 29 17 16 16 16 16 14 13 13
24 24 24 26 28 30 30 27 25 25 23 23 25 29 31 37 37 37 38 36 30 35 35 38 40 38 38 34 35 35 32 26 16 6 24 21 20 15 6 15 16 17 16
Wind_Direction
334 326 326 314 237 218 210 201 200 202 207 212 212 204 201 203 214 202 190 189 200 199 193 180 173 171 170 167 163 161 156 147 145 144 137 132 116 123 130 129 133 128 119
338 334 324 325 305 202 212 206 197 201 208 209 216 202 203 209 197 198 196 186 193 198 196 189 176 174 172 169 167 164 161 160 160 154 148 140 131 138 137 142 145 138 133
341 334 331 331 349 233 212 206 207 202 210 210 217 205 206 199 195 193 173 177 182 196 199 197 180 177 176 175 174 174 172 171 171 168 165 162 165 161 156 152 156 149 140
343 337 332 329 325 325 238 231 226 204 202 204 211 201 203 197 198 200 186 183 194 196 202 196 186 180 178 175 170 176 180 174 174 171 171 173 171 160 161 159 161 158 152
344 340 336 332 334 315 275 240 230 206 205 203 200 197 201 199 186 193 208 199 209 214 210 193 190 182 180 178 174 176 177 177 177 181 181 178 170 161 164 166 167 164 165
342 341 338 331 334 339 346 232 232 216 203 202 189 191 196 201 200 203 199 206 214 204 202 191 189 184 183 182 179 180 179 181 182 187 184 182 176 175 178 175 175 173 172
343 339 336 337 334 330 329 322 234 241 205 215 177 185 189 189 188 203 195 198 192 190 183 191 191 189 184 191 188 188 186 187 188 188 187 186 186 180 176 179 181 179 175
340 338 337 336 336 331 324 344 294 253 247 214 176 167 157 177 193 197 200 190 193 186 188 179 186 188 189 189 187 192 199 195 193 192 192 192 190 183 179 182 184 185 184
337 336 335 333 335 327 323 325 318 276 239 221 214 179 163 174 160 200 206 201 191 187 190 189 179 185 188 192 196 196 206 210 203 198 195 194 191 188 185 186 187 188 189
331 333 333 332 332 332 325 319 320 309 298 229 212 213 215 162 169 162 210 201 202 195 192 192 190 190 195 199 205 210 212 218 215 207 196 197 192 192 191 190 191 193 194
328 329 329 331 330 329 325 319 317 314 316 298 221 205 206 193 179 146 184 196 205 202 196 192 198 199 198 197 203 212 213 217 214 211 200 196 196 195 198 196 196 198 201
322 324 325 327 325 326 325 322 316 315 310 302 267 202 200 197 191 164 129 192 196 199 201 197 197 200 201 203 207 211 208 213 211 212 202 200 199 200 200 202 203 203 205
317 318 320 320 321 319 318 316 314 315 307 311 285 249 201 205 194 208 159 172 176 197 193 206 205 204 205 202 205 211 212 211 207 211 205 205 204 205 205 208 208 207 210
309 311 311 312 314 314 314 314 308 305 302 296 301 294 223 202 203 195 201 145 137 132 184 180 207 207 205 206 210 211 213 212 211 207 202 207 215 216 215 214 216 214 214
305 306 307 308 308 308 309 308 305 307 306 298 304 307 300 190 198 202 206 171 156 170 195 198 187 206 207 204 212 209 215 214 211 210 211 213 212 219 222 224 227 228 225
303 303 303 303 304 304 305 304 302 299 297 296 297 301 291 254 193 199 199 195 189 186 193 195 202 205 207 209 212 212 216 218 214 213 217 220 219 220 223 225 228 231 231
301 301 299 300 300 300 300 298 298 298 299 297 296 297 301 287 227 202 198 202 198 193 185 194 206 205 206 206 207 211 214 219 216 219 222 223 225 226 224 224 227 233 235
297 298 297 296 297 296 295 295 295 293 292 290 284 288 288 294 303 223 206 192 198 198 190 166 194 202 204 211 210 209 209 215 218 219 222 226 227 230 232 231 229 230 231
293 292 292 293 293 292 293 291 289 288 285 286 289 285 275 283 275 241 210 202 197 197 199 190 168 188 197 207 207 213 218 218 221 223 224 227 227 235 240 237 235 235 238
291 288 288 291 290 289 289 288 287 286 280 277 275 274 284 277 289 288 212 207 200 197 192 199 179 177 187 191 191 191 202 221 223 225 228 233 237 242 238 239 239 241 244
289 289 287 287 287 286 286 284 282 284 283 280 276 275 273 269 268 271 280 211 197 193 195 199 177 176 181 168 182 193 197 206 218 227 227 232 233 231 237 239 244 245 248
290 290 286 283 286 286 285 283 282 282 282 279 275 276 269 264 264 268 273 262 206 194 194 194 191 193 189 190 189 192 189 186 208 223 222 223 224 233 239 238 243 246 250
292 287 285 288 286 287 285 283 281 281 279 278 276 274 273 267 261 255 275 269 219 210 206 198 201 202 193 192 191 191 194 199 214 212 207 215 221 226 232 233 235 238 242
286 285 284 283 283 285 285 285 284 282 276 275 273 267 267 263 254 246 253 253 209 208 210 206 209 205 211 209 211 208 208 207 209 207 200 189 216 223 228 230 232 232 235
284 283 283 284 283 287 290 288 286 281 276 272 271 271 264 258 251 244 244 257 214 209 213 210 211 207 211 207 215 207 188 178 171 186 192 188 184 189 200 205 213 226 237
284 285 285 283 287 289 294 290 287 280 270 271 277 277 268 254 246 239 235 238 223 209 206 212 210 209 209 213 216 220 195 193 175 156 191 183 170 168 166 205 216 236 243